Location: Chena
(64.8152°N, 147.9227°W)
Time: 13:30:32
(UTC+00:00)

N. Korean satellite - Pass Details

Date: 24 January 2021
Orbit: 451 x 503 km, 97.2° (Epoch: 28 February)

Event Time Altitude Azimuth Distance (km) Brightness Sun altitude
Rises 03:18:24 0° 203° (SSW) 2,583 10.9 -12.6°
Reaches altitude 10° 03:20:53 10° 220° (SW) 1,697 10.2 -12.8°
Maximum altitude 03:23:42 21° 270° (W) 1,164 9.5 -13.1°
Drops below altitude 10° 03:26:30 10° 321° (NW) 1,685 9.6 -13.4°
Sets 03:28:58 0° 338° (NNW) 2,560 10.3 -13.7°
